Showing default

NORSAT 4, 62702

Orbit data source: Space-Track

NORSAT 4, 62702 is a payload satellite owned by NSC (NO) in SSO that was launched on Tue, 14 Jan 2025 UTC via an FALCON 9 launch vehicle from the Air Force Western Test Range (AFWTR). Payload-class satellites include a variety of spacecraft equipped with specific instruments for various scientific and technological missions. These include communications satellites like Starlink; space stations such as the ISS; scientific satellites like the Hubble; Earth observation satellites from companies like Planet Labs, Umbra, and HawkEye 360; GPS; miniature CubeSats for education and research; and military/defense satellites.

Loading next visibility...
Identifier
62702, 2025-009CX
Orbit
SSO
Country
Flag of NONO / NOR
Related business
Manufacturer
UTIAS-SFL
Mission
Operational Civil Com/Tech
Bus & Motor
DEFIANT, Unknown motor
Mass
35 kg wet, 35 kg dry
Launch date (UTC)
2025-01-14 (1 year ago)
Launch vehicle
FALCON 9
Launch site
Air Force Western Test Range (AFWTR)
Object type
Payload
Rocket body
Debris
Shape & HBR
Box, 0.6 m
Radar Cross Section
0.165 m², Medium (>0.1 m² and < 1m²)

Expand to show TLE details & history
Last TLE update: 6 hours ago

TLE from 6 hours ago
0 NORSAT 4
1 62702U 25009CX  26126.47956616  .00001779  00000-0  16838-3 0  9997
2 62702  97.7039 205.9185 0002404 141.8836 218.2555 14.94891599 71134
Epoch: 2026-05-06T11:30Z
TLE epoch observation values (Epoch: 2026-05-06T11:30:34.516Z)
Latitude
-0.00001°
Longitude
168.93522°
Altitude
587.071 km
Speed
7.566 km/s
True Right ascension
13h 43m 40s
True Declination
0° 00' 00"
Sunlit
Object was in full shadow at epoch
Visualization orbit readout
Latitude
Unknown
Longitude
Unknown
Altitude
Unknown
Speed
Unknown
Apparent Right ascension
Unknown
Apparent Declination
Unknown
Sunlit
N/A
Visualization observer readout
Local Sidereal Time
01:08:17
Azimuth
Unknown
Elevation
Unknown
Doppler factor
Unknown
Orbital elements
Apogee altitude
581.394 km
Perigee altitude
578.049 km
Semi-major axis
6,957.859 km
Eccentricity
0.00024
Inclination
97.7039°
RAAN
205.9185°
Arg. of periapsis
141.8836°
True anomaly
218.23845°
Mean anomaly
218.2555°
Eccentric anomaly
218.24697°
Mean motion
3.73964 °/min
Orbital period
96.27 mins
BSTAR
0.00016838
Loading maneuver chart data...
Computing Atmospheric mass density...
Loading historical data...
Loading historical data...
Loading historical data...
Loading historical data...
Loading historical data...
Loading historical data...
Loading historical data...

Documentation

Showing up to 5 results
|